Regional Weather Roundup
Issued by NWS

Home | Current Version | Previous Version | Text Only | Print | Product List | Glossary Off
Versions: 1 2 3 4 5 6 7 8 9 10 11 12 13 14 15 16 17 18 19 20 21 22 23 24 25 26 27 28 29 30 31 32 33 34 35 36 37 38 39 40 41 42 43 44 45 46 47 48 49 50

000
ASUS45 KABQ 281510
RWRNM
NEW MEXICO REGIONAL WEATHER ROUNDUP
NATIONAL WEATHER SERVICE ALBUQUERQUE NM
900 AM MDT WED JUN 28 2017

NOTE: "FAIR" MEANS FEW OR NO CLOUDS BELOW 12,000 FEET AGL WITH NO
       SIGNIFICANT WEATHER OR OBSTRUCTIONS TO VISION.

      THIS PRODUCT IS RELEASED AS TWO VERSIONS.  ONE VERSION NEAR
      THE TOP OF THE HOUR CONTAINING PRELIMINARY DATA FROM ALBUQUERQUE
      AND OTHER STATIONS.  A FINAL VERSION WITH ADDITIONAL DATA IS
      ISSUED ABOUT 10 MINUTES AFTER THE HOUR.

NMZ501-503-504-510>518-281600-
NORTHWEST PLATEAU/NORTHCENTRAL MOUNTAINS

CITY           SKY/WX    TMP DP  RH WIND       PRES   REMARKS
FARMINGTON     FAIR      69  24  18 E10       30.04R
LOS ALAMOS     FAIR      71  29  21 E3        30.18R
SANTA FE       FAIR      73  34  23 SW9       30.13R
TAOS           FAIR      72  28  20 SW8       30.18R
ANGEL FIRE     FAIR      66  30  25 S5        30.24S

$$
NMZ402-403-502-505>509-281600-
WESTCENTRAL MOUNTAINS/SOUTHWEST MOUNTAINS

CITY           SKY/WX    TMP DP  RH WIND       PRES   REMARKS
GALLUP         FAIR      74  20  13 SW14      30.16S
GRANTS         FAIR      76  20  12 SE8       30.17S
SILVER CITY    FAIR      79  28  15 NW10      30.13R

$$
NMZ407-409-411-412-281600-
SOUTHERN DESERTS

CITY           SKY/WX    TMP DP  RH WIND       PRES   REMARKS
DEMING         FAIR      78  43  28 W12       30.06R
LAS CRUCES     FAIR      81  41  24 W14       30.04R
HOLLOMAN AFB   FAIR      85  48  28 S10       30.02R
ALAMOGORDO     FAIR      84  48  28 S13       30.02R
T OR C         FAIR      79  30  16 NW12      30.06R

$$
NMZ519>523-281600-
CENTRAL VALLEYS/CENTRAL HIGHLANDS

CITY           SKY/WX    TMP DP  RH WIND       PRES   REMARKS
ALBUQUERQUE    PTSUNNY   75  23  14 SW7       30.09R
DOUBLE EAGLE   MOSUNNY   72  32  23 VRB5      30.12R
MORIARTY ARPT  FAIR      76  31  19 CALM      30.13S
CLINES CORNERS NOT AVBL
BELEN          FAIR      78  22  12 SW8       30.08S
SOCORRO        FAIR      70  49  48 CALM      30.07R

$$
NMZ524>526-539-540-281600-
SOUTHCENTRAL MOUNTAINS

CITY           SKY/WX    TMP DP  RH WIND       PRES   REMARKS
RUIDOSO        FAIR      72  46  40 NW6       30.19R

$$
NMZ527>531-281600-
NORTHEAST HIGHLANDS/NORTHEAST PLAINS

CITY           SKY/WX    TMP DP  RH WIND       PRES   REMARKS
LAS VEGAS      FAIR      75  28  17 S8        30.11S
RATON          FAIR      76  41  28 N10       30.05S
CLAYTON        FAIR      79  47  32 NW15G33   29.94R

$$
NMZ532>537-281600-
EASTCENTRAL PLAINS

CITY           SKY/WX    TMP DP  RH WIND       PRES   REMARKS
SANTA ROSA     FAIR      82  36  19 SW9       29.97S
TUCUMCARI      FAIR      83  54  36 W12       29.89S
CANNON AFB     FAIR      78  61  56 SW18      29.97S
CLOVIS AIRPORT FAIR      78  61  55 SW17      29.96S

$$
NMZ028-029-538-281600-
SOUTHEAST PLAINS

CITY           SKY/WX    TMP DP  RH WIND       PRES   REMARKS
ROSWELL        FAIR      81  60  48 S20       29.93S
ARTESIA        FAIR      79  63  57 S16       29.94F
CARLSBAD       FAIR      79  64  60 SE12      29.93R
HOBBS          SUNNY     77  63  61 S14       29.98S


$$




USA.gov is the U.S. government's official web portal to all federal, state and local government web resources and services.